TimeMST,TemperatureF,Dew PointF,Humidity,Sea Level PressureIn,VisibilityMPH,Wind Direction,Wind SpeedMPH,Gust SpeedMPH,PrecipitationIn,Events,Conditions,WindDirDegrees,DateUTC
12:53 AM,27.0,25.0,92,29.70,10.0,ENE,4.6,-,N/A,,Clear,60,2012-11-18 07:53:00
1:53 AM,27.0,25.0,92,29.68,10.0,Calm,Calm,-,N/A,,Clear,0,2012-11-18 08:53:00
2:53 AM,26.1,23.0,88,29.66,10.0,East,3.5,-,N/A,,Clear,90,2012-11-18 09:53:00
3:53 AM,26.1,23.0,88,29.64,10.0,NW,5.8,-,N/A,,Clear,320,2012-11-18 10:53:00
4:53 AM,21.9,19.9,92,29.65,10.0,Calm,Calm,-,N/A,,Clear,0,2012-11-18 11:53:00
5:53 AM,24.1,21.0,88,29.63,10.0,ENE,4.6,-,N/A,,Clear,70,2012-11-18 12:53:00
6:53 AM,28.0,24.1,85,29.62,10.0,ENE,4.6,-,N/A,,Clear,60,2012-11-18 13:53:00
7:53 AM,25.0,21.9,88,29.68,10.0,Calm,Calm,-,N/A,,Clear,0,2012-11-18 14:53:00
8:53 AM,39.0,30.9,73,29.72,10.0,WSW,11.5,19.6,N/A,,Mostly Cloudy,240,2012-11-18 15:53:00
9:53 AM,42.1,33.1,70,29.73,10.0,SW,16.1,-,N/A,,Clear,230,2012-11-18 16:53:00
10:53 AM,43.0,34.0,71,29.79,10.0,WSW,12.7,-,N/A,,Clear,250,2012-11-18 17:53:00
11:53 AM,42.1,32.0,67,29.79,10.0,SW,17.3,-,N/A,,Clear,220,2012-11-18 18:53:00
12:53 PM,41.0,30.9,67,29.82,10.0,SW,13.8,-,N/A,,Clear,230,2012-11-18 19:53:00
1:53 PM,43.0,28.9,58,29.85,10.0,SW,13.8,-,N/A,,Clear,230,2012-11-18 20:53:00
2:53 PM,44.1,30.0,58,29.89,10.0,SW,5.8,-,N/A,,Clear,220,2012-11-18 21:53:00
3:53 PM,41.0,28.0,60,29.92,10.0,WSW,8.1,-,N/A,,Clear,240,2012-11-18 22:53:00
4:53 PM,36.0,27.0,70,29.97,10.0,West,5.8,-,N/A,,Clear,260,2012-11-18 23:53:00
5:53 PM,35.1,26.1,70,29.99,10.0,WSW,6.9,-,N/A,,Clear,240,2012-11-19 00:53:00
6:53 PM,33.1,26.1,75,30.00,10.0,SSW,5.8,-,N/A,,Clear,200,2012-11-19 01:53:00
7:53 PM,34.0,25.0,70,30.00,10.0,SSW,6.9,-,N/A,,Clear,210,2012-11-19 02:53:00
8:53 PM,30.0,24.1,79,29.98,10.0,SSW,8.1,-,N/A,,Clear,210,2012-11-19 03:53:00
9:53 PM,28.9,21.9,75,29.99,10.0,SW,11.5,-,N/A,,Clear,220,2012-11-19 04:53:00
10:53 PM,28.9,23.0,78,30.00,10.0,SW,11.5,-,N/A,,Clear,230,2012-11-19 05:53:00
11:53 PM,30.9,23.0,72,30.01,10.0,WSW,9.2,-,N/A,,Clear,250,2012-11-19 06:53:00